Theta_e
344 347 348 349 347 348 348 346 346 349 351 349 349 346 342 347 347 350 350 359 360 359 358 355 353 355 353 353 352 353 352 350 347 349 350 349 350 349 349 350 351 351 351
350 351 351 347 347 341 347 348 344 347 347 348 345 344 345 346 347 347 350 353 360 360 358 353 352 352 352 352 351 350 350 352 351 349 349 349 350 350 350 349 349 351 351
353 351 348 346 347 345 347 348 344 346 341 345 344 345 344 345 345 345 349 350 354 358 357 355 355 354 351 350 350 350 350 351 349 351 353 352 353 353 353 353 353 352 351
354 355 354 350 353 351 349 347 344 342 343 340 340 340 345 341 343 344 347 350 351 352 358 359 360 358 356 355 354 353 354 356 357 357 356 354 353 353 353 353 352 351 350
358 358 355 352 355 349 351 348 340 341 341 341 340 342 345 343 342 348 345 345 347 348 351 359 359 360 357 357 357 357 358 359 358 358 358 357 356 355 356 354 353 351 348
356 355 355 353 352 349 349 347 341 343 339 342 342 340 340 341 339 341 345 347 347 347 347 348 354 355 360 359 360 360 359 362 360 359 358 358 358 356 356 354 353 351 347
355 354 355 352 352 342 344 350 349 345 344 340 333 337 337 339 342 339 340 340 343 348 349 345 347 349 352 360 361 361 360 360 360 360 360 358 357 356 355 353 351 350 346
356 354 349 352 350 347 348 344 345 342 343 339 335 337 330 330 332 338 339 339 338 344 349 349 350 349 347 348 352 361 361 361 359 359 360 358 357 357 355 353 350 348 346
357 354 354 353 352 352 347 349 347 344 338 341 339 336 328 327 330 336 333 337 338 338 342 343 346 348 349 347 352 356 360 358 360 359 360 359 357 356 356 354 350 347 344
356 356 353 354 354 352 347 348 352 344 341 338 336 336 339 337 329 327 337 338 338 338 339 343 345 347 347 348 355 356 358 357 357 359 360 360 357 356 358 355 352 347 344
357 358 356 355 355 352 351 351 350 347 345 342 338 333 336 337 335 332 326 333 339 339 341 338 343 346 349 348 348 353 356 356 356 355 357 358 359 356 355 356 352 348 341
356 354 355 356 357 354 352 351 351 350 351 350 348 341 333 332 331 333 331 332 333 337 342 342 342 344 349 350 353 356 355 355 353 352 352 354 357 356 353 356 355 351 342
349 353 355 355 354 352 353 354 353 354 353 350 351 345 348 345 338 337 333 332 332 335 336 340 341 342 347 348 350 355 356 351 349 347 347 348 350 353 354 357 358 354 348
349 350 358 357 355 356 354 356 352 354 354 352 350 351 351 349 348 337 336 334 330 331 334 338 340 343 343 344 349 355 350 348 346 345 344 343 345 347 349 351 355 354 352
350 350 356 357 357 355 355 355 352 353 353 352 351 349 351 351 348 349 341 339 333 327 328 335 340 346 344 342 347 346 343 348 344 342 340 340 341 342 344 345 348 349 347
349 353 354 358 355 356 353 355 352 354 352 350 352 353 351 352 350 350 348 343 342 335 330 337 339 341 354 353 352 345 345 347 345 341 339 338 338 340 340 341 341 343 344
356 357 356 355 355 355 356 354 351 353 354 352 352 352 353 351 350 348 350 350 349 342 335 339 344 350 348 346 348 350 352 350 349 343 342 339 337 336 338 338 339 339 341
352 356 356 356 355 353 353 354 353 352 351 352 354 351 351 357 353 349 349 348 349 348 345 338 343 346 348 351 352 352 356 361 352 351 342 337 335 333 332 333 334 335 335
356 358 355 354 352 352 352 353 354 353 351 353 355 354 354 353 352 355 354 352 352 354 352 348 347 350 351 348 346 348 351 354 357 352 343 338 336 334 332 329 328 327 326
352 355 357 354 356 353 353 352 355 354 352 353 355 353 354 355 353 354 356 355 354 353 352 349 348 347 347 349 350 345 344 346 347 354 350 344 344 337 332 329 328 328 324
352 352 354 355 356 357 357 352 352 354 354 353 354 355 354 355 353 353 357 356 356 354 352 350 347 346 344 342 343 346 342 343 347 349 355 355 352 348 335 327 327 327 324
351 354 354 355 355 359 346 343 350 351 354 354 353 353 355 351 350 343 341 343 353 353 348 346 344 343 342 343 346 344 344 344 341 357 353 351 346 337 334 325 325 324 323
346 350 354 356 355 357 340 339 343 353 350 353 353 352 352 355 349 353 345 339 339 337 341 349 343 343 342 344 345 345 346 346 347 353 353 348 344 333 330 325 324 322 321
351 351 353 355 356 358 340 335 338 348 350 349 351 354 353 353 350 348 349 349 350 348 344 343 343 348 349 350 351 352 350 350 352 356 355 344 340 332 328 326 323 321 320
354 352 354 356 356 357 335 334 333 338 345 349 351 351 351 350 343 337 345 345 343 345 346 336 337 336 338 338 345 351 347 340 343 348 351 346 335 333 327 325 324 320 317
353 356 355 355 349 357 336 330 333 351 343 344 348 350 337 347 335 332 347 347 347 350 349 351 350 339 334 339 336 344 352 341 346 348 349 340 334 333 324 327 325 323 319
Wind_Speed
3 5 2 4 3 3 3 3 4 5 4 5 5 5 8 8 8 4 2 12 10 11 11 9 8 6 6 6 5 5 4 3 2 1 2 4 4 5 5 5 4 5 5
5 11 7 4 7 7 4 3 4 3 4 4 1 6 9 7 8 7 4 5 10 9 10 9 9 8 7 6 5 4 4 2 2 1 2 3 4 4 4 4 5 4 5
4 9 7 5 5 7 6 4 5 3 2 3 3 1 3 7 6 8 6 4 5 10 10 10 10 9 8 8 7 6 5 4 4 4 4 5 6 5 6 6 5 6 6
1 3 5 5 5 7 6 7 3 4 1 2 1 4 3 5 8 8 6 6 6 6 9 12 11 10 10 9 9 8 7 7 7 7 6 7 7 6 6 6 6 5 3
2 3 4 5 5 5 5 4 1 2 2 2 3 4 4 4 4 8 8 7 8 5 5 11 12 11 11 10 10 10 9 8 8 8 8 8 8 8 8 5 5 4 1
4 3 3 5 5 3 1 2 3 2 2 3 2 3 3 4 4 4 8 8 7 8 7 6 6 6 12 11 11 11 12 10 9 9 9 9 9 8 7 6 5 3 1
5 5 3 3 3 4 3 3 2 1 1 2 2 3 2 2 6 5 4 5 7 10 8 6 5 4 6 14 11 11 13 12 11 11 10 10 9 8 8 6 5 3 3
6 5 3 1 3 3 4 3 3 1 1 1 3 1 1 4 2 4 3 4 5 5 7 7 7 7 6 5 7 13 13 13 14 13 12 10 10 9 7 6 6 5 5
6 6 4 3 4 2 2 1 2 4 1 2 2 4 1 1 1 3 1 3 4 3 5 7 7 7 7 6 9 11 16 14 14 14 13 12 10 9 7 8 7 7 7
7 7 6 4 3 2 3 1 1 3 3 1 3 1 2 4 3 2 3 3 3 4 5 4 5 6 6 5 9 13 15 17 16 15 14 14 12 10 11 10 10 10 10
7 8 7 6 4 3 3 3 0 2 2 1 2 1 1 1 2 3 2 3 3 4 4 5 6 5 7 6 6 8 17 17 17 16 16 15 13 12 13 14 14 14 14
4 6 6 6 6 4 3 3 3 0 2 1 1 1 2 1 1 2 1 2 3 4 5 5 5 5 7 7 10 13 16 14 16 16 16 16 15 15 16 17 17 17 17
3 6 7 6 5 5 4 3 4 2 2 1 2 0 1 1 1 2 2 1 1 3 1 4 5 5 5 7 7 11 11 14 15 17 16 15 16 17 17 18 18 19 20
7 6 6 7 7 7 5 4 3 3 3 3 3 3 1 3 2 2 3 3 4 3 3 4 2 3 4 4 7 11 6 13 15 16 16 13 16 17 15 17 18 17 19
5 7 8 8 7 7 7 6 4 4 3 4 4 3 2 3 1 3 2 3 5 1 4 4 2 4 4 3 4 5 7 11 15 16 16 15 15 16 17 19 18 16 14
5 10 11 8 7 7 7 7 5 4 5 4 4 4 4 4 3 2 2 2 3 5 3 3 3 3 3 3 5 7 7 9 11 14 16 15 17 20 19 22 13 15 15
6 9 9 7 7 7 7 6 7 6 6 6 5 5 6 6 4 3 1 1 2 2 3 4 3 3 4 6 8 5 6 7 7 13 17 13 13 17 15 6 16 12 17
7 8 11 11 9 8 7 7 7 7 6 7 7 6 7 5 7 5 3 4 3 3 2 4 3 3 4 7 8 7 7 7 5 11 13 7 8 6 4 9 9 11 13
7 8 9 10 9 8 8 7 7 7 7 6 8 7 7 6 5 4 5 5 3 3 2 2 4 3 4 4 4 3 3 4 3 8 4 3 6 6 7 6 4 6 9
8 7 8 9 8 8 8 8 7 7 7 7 7 7 7 7 7 7 6 6 5 4 4 3 4 4 3 4 1 2 4 3 5 7 2 3 10 14 14 12 12 12 8
13 11 7 7 8 8 8 8 8 8 8 8 7 7 8 9 11 11 7 6 6 5 4 4 4 2 3 3 3 2 3 3 4 3 2 3 4 4 6 9 12 15 13
8 13 13 12 10 9 13 15 11 8 9 11 10 8 7 8 11 13 11 9 7 5 5 4 3 5 8 4 2 3 3 3 3 2 3 3 3 5 4 7 16 17 12
17 14 13 13 13 13 14 16 17 11 10 9 10 10 9 9 9 7 10 13 13 14 14 10 7 7 5 6 3 4 4 4 4 6 2 1 3 5 5 7 16 15 8
15 14 14 15 14 12 14 16 16 12 10 13 12 11 12 11 9 8 7 8 9 9 8 7 10 12 10 8 7 9 6 4 4 3 2 1 2 3 4 6 16 14 10
14 15 13 13 15 15 16 17 11 8 11 12 12 12 12 12 12 11 8 9 9 9 8 13 13 14 16 16 11 2 4 2 5 3 1 3 1 3 3 5 5 14 11
15 12 14 15 14 15 14 17 15 10 9 8 9 10 14 14 12 12 10 9 11 13 6 6 5 7 11 10 17 10 8 7 4 2 3 3 3 3 2 3 3 4 4
Wind_Direction
185 35 57 129 162 116 21 309 285 233 241 279 280 181 138 135 134 139 141 150 147 147 146 144 146 151 155 154 150 142 139 142 140 128 31 12 6 359 358 356 8 13 10
134 130 233 182 139 126 215 153 245 246 232 246 218 81 135 142 148 148 156 162 160 157 159 162 166 173 177 173 180 181 182 192 223 274 290 297 310 319 323 332 340 347 354
127 137 180 175 143 163 191 170 217 160 102 298 94 96 102 145 149 151 162 165 171 179 182 181 182 185 188 194 198 206 213 219 234 257 273 276 283 297 310 315 316 331 343
296 96 144 158 154 164 178 206 174 115 110 255 36 291 198 150 171 159 162 174 176 188 197 198 192 204 211 212 212 218 224 228 234 245 256 269 281 281 277 278 289 302 328
203 74 134 136 149 157 144 140 239 181 164 186 222 187 213 177 190 165 178 186 183 189 198 211 204 207 214 222 228 232 234 233 231 241 248 252 256 263 270 273 281 289 317
140 67 103 99 91 94 147 170 144 202 132 229 287 146 195 190 215 160 195 191 185 186 196 193 201 212 219 227 227 234 240 237 236 239 244 250 250 252 256 265 274 273 234
127 102 101 121 119 145 119 104 92 133 278 203 63 352 314 250 227 211 207 184 186 193 188 190 188 198 214 226 228 233 240 240 236 240 239 243 248 247 249 253 257 242 209
142 124 135 120 117 116 120 118 120 62 1 109 125 149 3 335 314 235 213 185 220 172 179 199 195 196 205 206 215 231 237 239 241 242 244 243 244 241 243 250 244 225 207
147 143 161 122 113 112 130 148 119 93 68 316 199 132 52 230 351 321 222 175 182 151 197 197 191 191 201 198 213 225 230 231 236 239 242 243 241 240 233 233 221 218 210
149 153 150 167 157 127 140 198 139 142 124 14 330 164 175 163 137 4 317 281 244 233 174 210 198 204 197 199 204 208 217 223 226 230 236 241 239 230 229 224 216 213 211
161 164 165 170 170 134 160 168 238 176 130 137 164 273 253 1 99 127 289 300 304 256 242 206 207 197 203 208 212 223 220 221 221 224 230 234 235 231 231 231 225 221 215
166 171 163 163 165 156 191 177 174 196 171 224 329 17 104 118 250 78 85 291 218 270 221 226 216 206 210 214 222 225 221 215 221 223 228 232 233 228 228 231 230 226 222
176 185 173 174 171 168 199 205 161 179 232 223 327 22 166 78 218 154 116 302 18 311 347 238 245 223 215 217 231 232 219 217 222 228 229 227 231 234 226 229 230 229 227
194 175 171 170 180 175 184 175 181 201 206 222 269 322 345 322 359 251 154 113 353 335 346 300 292 260 253 223 221 221 222 223 230 233 234 233 236 239 231 231 230 231 228
182 189 174 176 177 183 179 177 189 222 241 223 229 259 274 278 333 309 257 142 147 278 307 306 343 317 296 314 288 212 226 231 238 243 241 232 235 243 240 230 222 224 234
177 182 185 172 178 180 188 175 190 215 200 219 225 241 251 267 268 326 333 276 159 166 220 222 276 268 311 324 262 236 251 254 241 244 250 241 233 239 238 233 225 233 229
147 164 165 171 179 184 187 183 200 207 203 213 235 222 246 259 278 279 288 329 321 171 222 297 253 292 313 303 301 281 263 260 263 260 265 259 256 247 254 227 235 235 231
166 175 177 184 189 191 190 189 195 209 204 209 224 228 239 236 250 260 248 251 243 259 195 271 273 288 283 286 271 288 283 270 261 270 287 303 307 277 208 210 232 240 238
199 175 175 178 180 186 193 198 198 208 211 215 214 217 230 224 233 238 247 260 262 264 235 227 277 253 267 270 301 284 299 308 315 308 43 21 55 46 36 28 330 281 266
190 190 179 186 182 187 192 196 195 206 217 219 221 222 220 219 225 233 230 232 243 256 257 254 266 272 261 296 293 258 333 338 321 328 1 44 54 67 68 49 20 346 297
206 204 191 192 191 190 200 197 202 199 208 226 229 226 228 224 218 223 227 230 223 234 249 255 266 276 281 303 315 286 284 294 302 273 341 9 82 67 44 30 355 342 325
197 201 202 204 203 210 208 199 198 202 207 214 229 238 236 238 244 242 239 232 206 204 231 218 245 257 274 256 248 273 290 326 325 288 22 320 91 65 38 23 357 349 339
210 208 205 204 210 215 209 207 204 211 210 215 218 228 240 243 231 234 243 247 249 237 232 245 241 243 248 245 236 270 251 232 240 275 76 258 82 73 29 23 8 5 34
206 209 211 209 212 215 205 211 211 217 214 220 219 213 221 234 230 221 238 250 251 248 239 226 230 251 251 255 224 252 244 246 263 271 155 150 80 68 43 32 22 23 51
203 209 210 209 212 220 207 211 193 206 222 223 222 224 221 230 232 217 225 245 260 257 244 237 227 226 234 241 238 196 240 229 281 238 136 139 137 109 60 34 22 38 53
210 205 210 214 212 220 207 209 199 218 220 225 223 228 219 221 206 207 220 229 247 254 233 249 250 248 243 246 247 217 242 240 217 244 190 128 145 142 100 68 29 36 46